Regional Weather Roundup
Issued by NWS Cleveland, OH

Home | Current Version | Previous Version | Text Only | Print | Product List | Glossary Off
Versions: 1 2 3 4 5 6 7 8 9 10 11 12 13 14 15 16 17 18 19 20 21 22 23 24 25 26 27 28 29 30 31 32 33 34 35 36 37 38 39 40 41 42 43 44 45 46 47 48 49 50

000
ASUS41 KCLE 211902
RWRCLE
OHIO REGIONAL WEATHER ROUNDUP
NATIONAL WEATHER SERVICE CLEVELAND, OH
200 PM EST FRI NOV 21 2014

NOTE: "FAIR" INDICATES FEW OR NO CLOUDS BELOW 12,000 FEET WITH NO
SIGNIFICANT WEATHER AND/OR OBSTRUCTIONS TO VISIBILITY.

OHZ001>008-015>018-024>027-034-035-043-044-212000-
   NORTHWEST OHIO

CITY           SKY/WX    TMP DP  RH WIND       PRES   REMARKS
DEFIANCE       SUNNY     27  14  58 S9        30.48F WCI  18
FINDLAY        SUNNY     26  12  55 SW7       30.48F WCI  18
TOLEDO EXPRESS FAIR      26  12  55 W6        30.47F WCI  19
TOLEDO EXEC    MOSUNNY   25  13  60 SW12      30.48F WCI  14
LIMA           SUNNY     27  11  51 S5        30.47F WCI  22
$$

OHZ009>014-019>023-028>033-038-089-212000-
   NORTHEAST OHIO

CITY           SKY/WX    TMP DP  RH WIND       PRES   REMARKS
CLE-HOPKINS    PTSUNNY   24  10  55 W8        30.50F WCI  15
CLE-LAKEFRONT  CLOUDY    24  15  68 SW14      30.49S WCI  12
CUY CO. ARPT   SNOWSHWR  27  14  59 W12       30.47S WCI  16
LORAIN-ELYRIA  PTSUNNY   24  10  55 W10       30.48S WCI  14
ASHTABULA      FLURRIES  24  16  71 W7        30.45S WCI  16
AKRON-CANTON   MOSUNNY   24   8  50 SW9       30.45F WCI  14
WOOSTER        SUNNY     24   8  50 W7        30.47S WCI  16
MANSFIELD      SUNNY     23  10  57 SW7       30.45F WCI  15
YOUNGSTOWN     CLOUDY    23  10  57 VRB6      30.44R WCI  16
$$

OHZ042-051>053-060>062-070>072-077>081-212000-
  SOUTHWEST OHIO

CITY           SKY/WX    TMP DP  RH WIND       PRES   REMARKS
CINC-COVINGTON SUNNY     31  10  41 S5        30.47F WCI  26
CINC-LUNKEN    SUNNY     33  11  39 CALM      30.51F
HAMILTON       SUNNY     32   9  38 E3        30.50F
DAYTON         SUNNY     29  10  45 CALM      30.47F
WRIGHT-PAT AFB SUNNY     28   9  45 NE1       30.48F
DAYTON GENERAL SUNNY     29  10  45 SE3       30.47F
WILMINGTON     SUNNY     25  10  53 SE5       30.47F WCI  19
$$

OHZ036-037-039>041-045>050-054>059-063>069-073>076-082>088-212000-
  CENTRAL AND SOUTHEAST OHIO

CITY           SKY/WX    TMP DP  RH WIND       PRES   REMARKS
COLUMBUS       MOSUNNY   27  10  49 SW8       30.50S WCI  19
OSU AIRPORT    SUNNY     26  11  52 SW7       30.50S WCI  18
BOLTON FIELD   SUNNY     27  10  50 S3        30.50F
RICKENBACK AFB NOT AVBL
NEWARK         SUNNY     26   9  48 SW3       30.49S
MARION         SUNNY     24  12  60 CALM      30.48F
LANCASTER      SUNNY     26  11  52 SW7       30.51S WCI  18
ZANESVILLE     SUNNY     27   9  46 VRB7      30.49S WCI  19
NEW PHILLY     SUNNY     26   7  44 NW6       30.50S WCI  19
$$


USA.gov is the U.S. government's official web portal to all federal, state and local government web resources and services.